TimeEDT,TemperatureF,Dew PointF,Humidity,Sea Level PressureIn,VisibilityMPH,Wind Direction,Wind SpeedMPH,Gust SpeedMPH,PrecipitationIn,Events,Conditions,WindDirDegrees,DateUTC
12:53 AM,53.1,48.0,83,30.08,10.0,SSE,4.6,-,N/A,,Clear,150,2013-09-07 04:53:00
1:53 AM,55.9,46.9,72,30.08,10.0,SSE,4.6,-,N/A,,Clear,160,2013-09-07 05:53:00
2:53 AM,55.0,46.9,74,30.07,10.0,SSE,5.8,-,N/A,,Clear,160,2013-09-07 06:53:00
3:53 AM,54.0,46.0,75,30.07,10.0,South,5.8,-,N/A,,Clear,170,2013-09-07 07:53:00
4:53 AM,53.1,46.9,80,30.06,10.0,South,4.6,-,N/A,,Clear,170,2013-09-07 08:53:00
5:53 AM,53.1,46.9,80,30.05,10.0,South,5.8,-,N/A,,Clear,170,2013-09-07 09:53:00
6:53 AM,55.0,50.0,83,30.06,10.0,South,4.6,-,N/A,,Partly Cloudy,180,2013-09-07 10:53:00
7:53 AM,57.0,51.1,81,30.06,10.0,South,3.5,-,N/A,,Partly Cloudy,180,2013-09-07 11:53:00
8:53 AM,63.0,54.0,72,30.04,10.0,South,4.6,-,N/A,,Clear,190,2013-09-07 12:53:00
9:53 AM,71.1,55.9,59,30.04,10.0,SW,5.8,-,N/A,,Scattered Clouds,230,2013-09-07 13:53:00
10:53 AM,75.0,59.0,57,30.02,10.0,WSW,11.5,-,N/A,,Partly Cloudy,250,2013-09-07 14:53:00
11:53 AM,78.1,63.0,60,30.02,10.0,West,10.4,-,N/A,,Overcast,260,2013-09-07 15:53:00
12:53 PM,81.0,64.9,58,30.00,10.0,West,16.1,24.2,N/A,,Mostly Cloudy,260,2013-09-07 16:53:00
1:53 PM,81.0,64.0,56,29.99,10.0,West,6.9,-,N/A,,Scattered Clouds,280,2013-09-07 17:53:00
2:53 PM,84.9,64.0,49,29.96,10.0,West,11.5,-,N/A,,Partly Cloudy,280,2013-09-07 18:53:00
3:53 PM,84.9,61.0,44,29.94,10.0,WSW,9.2,-,N/A,,Partly Cloudy,250,2013-09-07 19:53:00
4:53 PM,82.9,61.0,47,29.91,10.0,SW,8.1,-,N/A,,Mostly Cloudy,230,2013-09-07 20:53:00
5:53 PM,82.0,63.0,52,29.92,10.0,WSW,6.9,-,N/A,,Overcast,250,2013-09-07 21:53:00
6:53 PM,79.0,63.0,58,29.92,10.0,WSW,4.6,-,N/A,,Mostly Cloudy,240,2013-09-07 22:53:00
7:53 PM,75.0,64.9,71,29.92,10.0,SSW,3.5,-,N/A,,Overcast,200,2013-09-07 23:53:00
8:53 PM,72.0,64.9,78,29.91,10.0,SSW,6.9,-,N/A,,Mostly Cloudy,200,2013-09-08 00:53:00
9:53 PM,73.0,63.0,71,29.92,10.0,SSW,3.5,-,N/A,,Mostly Cloudy,210,2013-09-08 01:53:00
10:53 PM,73.0,62.1,68,29.92,10.0,SW,3.5,-,N/A,,Mostly Cloudy,220,2013-09-08 02:53:00
11:53 PM,72.0,63.0,73,29.92,10.0,WSW,4.6,-,N/A,,Mostly Cloudy,250,2013-09-08 03:53:00